Weather in Hluboka nad Vltavou

Czech Republic     49°03′13″N   14°25′51″E
temp.,
°C
wind,
m/s
gust,
m/s
humid.,
%
clouds,
%
prec.,
mm/h
press.,
hPa
HPBL,
m
6 may, thu
thu623:00+4w512691 0.0 1013513
02:00+3wsw6127314 0.0 1014494
05:00+3wsw5127824 0.0 1014447
08:00+6wsw51069100 0.0 1013914
11:00+9wsw71054100 0.0 10121983
14:00+11wsw6953100 0.1 10101954
17:00+11sw4760100 0.0 10081585
20:00+9ssw1173100 0.0 100610
7 may, fri
fri723:00+6s1293100 1.8 100751
02:00+8sw61485100 1.8 10061176
05:00+7wsw6138299 0.1 1006676
08:00+8w7127589 0.2 10081365
11:00+7nw61069100 0.3 10111391
14:00+9wnw9125363 0.4 10122131
17:00+8wnw8126399 0.6 10141939
20:00+5wnw6127095 1.1 1018828
8 may, sat
sat823:00+2w49760 0.0 1021209
02:00+1sw23780 0.0 102133
05:00+1sw23840 0.0 102235
08:00+6wsw25674 0.0 1022301
11:00+11wsw244391 0.0 10202239
14:00+13sw243575 0.0 10192420
17:00+14s13357 0.0 10182283
20:00+10se125835 0.0 101812
9 may, sun
sun923:00+6sse22655 0.0 101919
02:00+5sse2263100 0.0 101921
05:00+5sse22655 0.0 101826
08:00+9se34665 0.0 1017178
11:00+17ese56545 0.0 1014607
14:00+19ese78495 0.0 1013755
17:00+19e69555 0.0 1011680
20:00+13ese5116832 0.0 1011279
10 may, mon
mon1023:00+10ese5107670 0.0 1012273
02:00+8ese378995 0.0 1012163
05:00+7se24925 0.0 101281
08:00+11se34773 0.0 1012230
11:00+18ese23590 0.0 1011633
14:00+21ese66560 0.0 1009893
17:00+21ese68595 0.0 1008783
20:00+16ese48775 0.0 1007164